Track STARLINK-2706 now! 10-day predictions STARLINK-2706 is classified as:
1 48481U 21040BF 22186.79612702 -.00000692 00000-0 -27534-4 0 9999 2 48481 53.0560 110.3854 0002156 64.6486 295.4726 15.06395217 63931